SCP
0 0 0 0 0 0 0 0 0 0 0 0 0 0 0 0 0 0 0 0 0 0 0 0 0 0 0 0 0 0 0 0 0 0 0 0 0 0 0 0 0 0 0
0 0 0 0 0 0 0 0 0 0 0 0 0 0 0 0 0 0 0 0 0 0 0 0 0 0 0 0 0 0 0 0 0 0 0 0 0 0 0 0 0 0 0
0 0 0 0 0 0 0 0 0 0 0 0 0 0 0 0 0 0 0 0 0 0 0 0 0 0 0 0 0 0 0 0 0 0 0 0 0 0 0 0 0 0 0
0 0 0 0 0 0 0 0 0 0 0 0 0 0 0 0 0 0 0 0 0 0 0 0 0 0 0 0 0 0 0 0 0 0 0 0 0 0 0 0 0 0 0
0 0 0 0 0 0 0 0 0 0 0 0 0 0 0 0 0 0 0 0 0 0 0 0 0 0 0 0 0 0 0 0 0 0 0 0 0 0 0 0 0 0 0
0 0 0 0 0 0 0 0 0 0 0 0 0 0 0 0 0 0 0 0 0 0 0 0 0 0 0 0 0 0 0 0 0 0 0 0 0 0 0 0 0 0 0
0 0 0 0 0 0 0 0 0 0 0 0 0 0 0 0 0 0 0 0 0 0 0 0 0 0 0 0 0 0 0 0 0 0 0 0 0 0 0 0 0 0 0
0 0 0 0 0 0 0 0 0 0 0 0 0 0 0 0 0 0 0 0 0 0 0 0 0 0 0 0 0 0 0 0 0 0 0 0 0 0 0 0 0 0 0
0 0 0 0 0 0 0 0 0 0 0 0 0 0 0 0 0 0 0 0 0 0 0 0 0 0 0 0 0 0 0 0 0 0 0 0 0 0 0 0 0 0 0
0 0 0 0 0 0 0 0 0 0 0 0 0 0 0 0 0 0 0 0 0 0 0 0 0 0 0 0 0 0 0 0 0 0 0 0 0 0 0 0 0 0 0
0 0 0 0 0 0 0 0 0 0 0 0 0 0 0 0 0 0 0 0 0 0 0 0 0 0 0 0 0 0 0 0 0 0 0 0 0 0 0 0 0 0 0
0 0 0 0 0 0 0 0 0 0 0 0 0 0 0 0 0 0 0 0 0 0 0 0 0 0 0 0 0 0 0 0 0 0 0 0 0 0 0 0 0 0 0
0 0 0 0 0 0 0 0 0 0 0 0 0 0 0 0 0 0 0 0 0 0 0 0 0 0 0 0 0 0 0 0 0 0 0 0 0 0 0 0 0 0 0
0 0 0 0 0 0 0 0 0 0 0 0 0 0 0 0 0 0 0 0 0 0 0 0 0 0 0 0 0 0 0 0 0 0 0 0 0 0 0 0 0 0 0
0 0 0 0 0 0 0 0 0 0 0 0 0 0 0 0 0 0 0 0 0 0 0 0 0 0 0 0 0 0 0 0 0 0 0 0 0 0 0 0 0 0 0
0 0 0 0 0 0 0 0 0 0 0 0 0 0 0 0 0 0 0 0 0 0 0 0 0 0 0 0 0 0 0 0 0 0 0 0 0 0 0 0 0 0 0
0 0 0 0 0 0 0 0 0 0 0 0 0 0 0 0 0 0 0 0 0 0 0 0 0 0 0 0 0 0 0 0 0 0 0 0 0 0 0 0 0 0 0
0 0 0 0 0 0 0 0 0 0 0 0 0 0 0 0 0 0 0 0 0 0 0 0 0 0 0 0 0 0 0 0 0 0 0 0 0 0 0 0 0 0 0
0 0 0 0 0 0 0 0 0 0 0 0 0 0 0 0 0 0 0 0 0 0 0 0 0 0 0 0 0 0 0 0 0 0 0 0 0 0 0 0 0 0 0
0 0 0 0 0 0 0 0 0 0 0 0 0 0 0 0 0 0 0 0 0 0 0 0 0 0 0 0 0 0 0 0 0 0 0 0 0 0 0 0 0 0 0
0 0 0 0 0 0 0 0 0 0 0 0 0 0 0 0 0 0 0 0 0 0 0 0 0 0 0 0 0 0 0 0 0 0 0 0 0 0 0 0 0 0 0
0 0 0 0 0 0 0 0 0 0 0 0 0 0 0 0 0 0 0 0 0 0 0 0 0 0 0 0 0 0 0 0 0 0 0 0 0 0 0 0 0 0 0
0 0 0 0 0 0 0 0 0 0 0 0 0 0 0 0 0 0 0 0 0 0 0 0 0 0 0 0 0 0 0 0 0 0 0 0 0 0 0 0 0 0 0
0 0 0 0 0 0 0 0 0 0 0 0 0 0 0 0 0 0 0 0 0 0 0 0 0 0 0 0 0 0 0 0 0 0 0 0 0 0 0 0 0 0 0
0 0 0 0 0 0 0 0 0 0 0 0 0 0 0 0 0 0 0 0 0 0 0 0 0 0 0 0 0 0 0 0 0 0 0 0 0 0 0 0 0 0 0
0 0 0 0 0 0 0 0 0 0 0 0 0 0 0 0 0 0 0 0 0 0 0 0 0 0 0 0 0 0 0 0 0 0 0 0 0 0 0 0 0 0 0
Wind_Speed
7 7 7 7 7 7 7 9 9 9 9 10 10 10 10 11 10 10 12 12 14 15 14 15 18 15 13 12 12 12 13 13 19 13 6 7 11 11 11 10 10 12 12
7 7 8 8 8 9 9 10 10 10 10 10 10 11 11 11 10 11 13 13 13 15 15 15 17 13 16 14 12 15 14 14 16 20 8 7 11 10 10 9 9 10 9
8 8 9 9 9 10 11 11 10 11 11 11 10 11 12 11 11 11 12 13 13 14 14 14 15 14 16 14 14 15 13 13 14 16 13 7 8 7 8 8 9 8 9
8 9 10 10 10 11 11 11 11 11 11 12 11 12 12 12 11 11 12 13 13 14 14 14 14 14 16 15 14 16 14 14 13 14 13 8 7 6 8 8 8 8 10
9 10 11 11 11 11 12 12 12 11 12 12 12 12 12 10 10 11 11 13 13 14 13 13 14 18 21 18 14 12 13 13 13 13 13 10 9 7 9 8 11 8 9
10 11 12 12 12 12 12 12 12 12 12 12 12 13 13 11 19 25 20 12 12 12 13 12 13 17 21 26 28 26 21 16 15 14 13 13 12 12 9 10 10 9 9
11 12 12 13 13 13 13 13 13 13 12 12 12 12 14 15 24 26 27 17 12 11 11 11 10 11 17 13 18 25 24 28 26 17 15 15 12 11 12 12 11 10 11
12 13 13 13 14 14 13 13 13 12 12 13 13 13 13 16 25 26 26 17 11 10 10 11 11 11 12 13 11 13 13 14 17 16 14 13 12 10 12 13 12 11 7
13 13 13 13 14 15 15 15 13 13 13 13 13 13 14 16 23 26 25 11 9 10 10 10 11 11 18 21 14 12 12 11 17 22 21 19 22 22 17 10 10 9 9
14 14 14 13 14 15 16 16 14 12 14 14 13 12 14 14 21 25 24 9 9 9 8 9 16 16 19 21 12 10 12 10 9 10 13 16 15 18 24 15 12 10 6
14 14 14 13 13 14 15 13 13 13 14 14 14 13 12 15 19 23 23 11 8 9 8 7 8 17 20 20 16 10 13 11 8 9 8 7 6 7 9 10 10 10 9
14 14 14 14 13 13 14 14 13 12 14 14 13 13 9 10 15 18 22 21 17 10 8 7 8 17 19 18 13 13 17 13 6 6 7 7 7 7 7 7 8 10 9
15 15 15 14 13 12 13 14 13 11 11 11 11 11 10 8 10 20 21 21 21 12 8 14 16 18 16 12 14 16 12 6 5 6 7 7 6 6 5 5 6 7 7
15 15 14 14 14 12 10 10 10 10 11 11 11 11 11 9 8 7 8 9 13 11 9 12 16 15 12 11 10 8 5 4 5 6 6 5 5 5 6 6 6 6 6
15 14 14 12 13 12 10 10 11 10 12 15 11 10 11 11 13 20 15 8 7 8 8 6 5 4 5 4 4 4 4 4 5 5 5 5 6 6 6 6 6 6 6
14 13 11 11 11 11 12 12 15 17 22 23 22 19 14 18 23 23 22 21 21 19 11 6 5 5 5 5 5 4 4 5 5 5 5 6 6 7 6 5 5 6 7
14 14 12 11 11 11 11 12 13 14 17 19 21 22 21 22 22 22 21 21 19 17 8 5 5 5 5 4 4 4 4 4 4 5 5 5 6 6 6 6 7 7 7
13 15 15 11 11 11 11 11 11 12 13 10 13 19 21 21 21 20 20 16 9 8 5 5 5 5 4 4 4 4 4 4 4 4 5 5 6 6 6 7 7 8 8
13 11 11 11 10 10 10 10 10 11 11 11 10 12 17 18 18 18 15 7 7 7 6 5 5 5 4 4 4 4 4 4 5 5 5 6 6 6 7 7 7 12 10
11 19 18 12 11 10 10 10 10 10 11 10 10 10 10 10 8 8 7 6 6 7 6 6 5 4 4 4 4 4 4 5 5 5 5 6 6 6 7 8 8 8 8
11 13 19 14 10 10 10 10 10 10 10 10 10 11 18 10 8 8 7 7 6 6 6 5 5 4 4 4 3 4 5 4 5 5 5 5 5 6 6 7 7 7 7
10 11 10 11 10 10 10 9 9 10 10 11 10 11 17 9 7 7 7 7 6 6 5 5 4 4 4 4 4 4 5 5 5 5 5 5 5 6 6 6 6 7 7
10 11 11 10 10 13 12 9 9 10 10 10 10 9 8 7 7 7 7 7 6 6 5 4 5 4 4 4 4 5 5 5 5 5 5 5 5 6 6 7 8 8 8
10 11 11 11 10 9 10 10 9 10 10 10 9 8 8 7 7 8 7 6 6 6 5 5 5 6 7 6 4 5 5 5 5 5 7 6 6 6 6 6 7 9 9
9 10 10 10 10 10 10 10 10 10 10 9 9 8 8 7 7 7 6 6 6 6 7 6 5 5 7 8 7 6 9 11 9 6 5 6 7 7 7 8 8 8 9
9 10 10 9 9 9 10 10 10 10 10 9 8 8 8 7 7 7 6 6 6 6 6 5 6 7 8 7 8 10 12 12 11 11 6 5 6 7 8 8 9 9 10
Wind_Direction
320 313 308 302 298 294 287 283 282 281 278 274 272 270 267 263 256 251 250 247 246 247 242 238 239 234 233 230 227 226 227 227 248 254 203 198 202 215 226 220 216 225 234
309 307 303 300 299 296 291 288 285 283 280 276 275 272 270 266 260 255 257 254 249 249 246 242 243 238 235 232 228 228 228 225 235 252 235 203 210 211 216 219 219 219 220
307 306 305 303 300 296 293 292 289 286 284 280 276 274 272 268 264 259 258 258 254 252 250 245 245 239 239 235 230 231 230 229 230 243 246 213 213 208 211 221 222 221 220
307 305 302 300 297 294 292 291 288 286 285 284 279 275 272 270 267 264 262 261 260 257 253 249 246 240 240 237 235 233 230 229 229 236 243 225 214 194 202 213 224 219 227
306 304 300 297 295 292 291 290 288 285 284 282 282 279 275 272 269 266 261 259 259 259 256 251 247 247 245 243 239 234 227 229 229 233 238 232 218 199 208 204 222 219 224
302 300 299 298 297 294 292 292 291 289 287 285 282 281 279 277 283 286 285 270 259 257 258 254 252 257 258 258 254 246 232 225 226 228 231 230 224 214 206 207 214 218 227
299 298 298 297 295 294 294 294 292 291 289 287 283 280 280 280 287 290 289 286 271 262 257 257 258 255 259 252 256 258 253 241 230 223 230 229 221 211 206 210 210 211 219
298 297 295 295 296 297 296 294 293 291 290 289 287 284 283 285 292 294 294 290 278 267 259 257 258 258 254 253 245 246 247 248 243 234 227 225 221 212 206 211 213 219 224
299 298 297 298 300 301 300 298 297 295 294 291 289 287 287 289 293 295 294 283 275 269 262 256 257 255 259 262 255 247 247 245 250 246 238 229 225 222 211 207 208 212 222
300 299 300 299 299 299 298 297 296 294 294 295 292 289 287 287 291 295 296 285 279 276 268 259 264 264 264 264 254 243 246 243 234 242 245 242 231 227 224 211 204 208 206
298 299 299 298 296 295 295 295 295 296 296 295 293 290 286 287 294 297 298 292 278 277 274 268 260 269 270 268 261 244 246 243 227 225 228 228 222 219 222 214 203 205 205
301 301 301 300 298 299 297 297 297 298 298 297 297 297 290 288 294 296 297 296 294 284 277 272 268 275 273 271 267 257 254 250 225 214 218 220 219 218 214 210 206 208 211
302 302 302 302 299 296 297 299 301 300 298 298 298 298 299 292 291 298 301 301 300 294 279 280 282 283 282 273 269 267 260 242 217 214 216 219 214 209 200 201 206 209 214
302 303 304 303 303 300 297 296 297 299 299 298 299 299 299 297 292 288 286 291 293 291 287 284 287 287 283 274 269 270 253 230 221 218 213 211 199 196 201 200 203 201 212
302 303 303 301 300 302 299 294 296 289 292 300 299 298 300 300 298 303 303 296 291 282 288 278 272 273 267 258 252 251 241 236 237 219 209 206 202 203 205 199 198 197 208
304 305 303 302 301 301 302 301 296 297 303 304 303 302 298 298 305 309 311 310 308 302 298 282 272 264 263 258 251 245 234 230 230 223 212 208 206 204 204 198 198 203 214
299 301 301 300 301 302 302 304 306 307 305 305 307 308 306 307 310 312 312 312 310 309 296 281 274 267 264 257 248 242 239 233 225 219 216 212 207 204 204 204 204 209 218
299 300 301 298 298 298 298 299 300 304 308 307 307 309 310 310 312 313 315 315 307 305 289 284 279 271 263 258 250 246 240 232 226 223 219 213 209 207 208 208 207 211 217
302 300 298 296 296 296 296 296 296 297 299 302 304 306 310 313 312 311 315 305 298 295 290 282 274 268 263 258 254 247 240 235 231 224 221 216 211 209 213 213 213 223 222
301 303 307 303 300 299 298 298 298 298 299 301 303 306 310 310 306 308 306 293 290 289 285 280 275 268 263 259 257 252 244 239 232 230 227 219 214 212 216 216 216 219 221
302 302 305 305 299 298 298 297 298 299 300 301 300 303 310 311 306 304 303 299 294 292 287 281 275 269 264 261 257 252 247 245 237 230 227 221 214 216 218 218 218 220 222
300 300 300 301 301 301 301 298 298 298 299 300 302 306 312 310 302 301 300 298 295 289 284 279 275 267 259 254 252 251 250 248 243 234 229 224 219 220 218 218 219 219 221
300 302 304 303 301 303 305 299 299 299 299 300 302 305 306 303 301 299 298 297 295 292 289 281 275 272 266 258 250 244 245 246 241 232 230 228 225 222 219 220 221 222 225
303 305 305 304 304 302 302 302 301 300 300 301 302 302 302 301 299 298 297 296 296 293 289 283 276 273 271 269 262 254 250 249 238 229 227 230 232 230 226 227 228 230 231
306 305 305 304 304 304 303 302 301 300 301 302 301 302 302 300 299 298 298 297 297 294 292 289 282 279 274 271 268 263 262 262 259 247 230 228 232 232 231 233 234 235 236
308 307 305 304 303 302 301 301 301 301 301 301 301 301 299 298 297 297 298 297 297 297 295 292 286 283 281 278 271 270 271 270 267 261 251 238 234 237 235 236 237 237 239